This is the latest recevied weather packets stored in our database for station/object SV9TNF-2. If no packets are shown the sender has not sent any weather packets the latest 10 day(s).
| Time | Temp. | Humidity | Pressure | Rain* | Wind** | Luminosity | Snow |
|---|---|---|---|---|---|---|---|
| 1777644923 | 16.67° C | 77% | 1022.4 hPa | 0 mm | 8.05 m/s, 104° | - | - |
| 1777644623 | 16.67° C | 76% | 1022.4 hPa | 0 mm | 5.81 m/s, 80° | - | - |
| 1777644323 | 16.67° C | 77% | 1022.4 hPa | 0 mm | 7.15 m/s, 105° | - | - |
| 1777644024 | 16.67° C | 76% | 1022.4 hPa | 0 mm | 5.81 m/s, 87° | - | - |
| 1777643723 | 16.67° C | 76% | 1022.4 hPa | 0 mm | 8.94 m/s, 64° | - | - |
| 1777643423 | 16.11° C | 76% | 1022.4 hPa | 0 mm | 4.02 m/s, 73° | - | - |
| 1777643123 | 16.67° C | 77% | 1022.4 hPa | 0 mm | 8.05 m/s, 58° | - | - |
| 1777642823 | 16.67° C | 77% | 1022.4 hPa | 0 mm | 5.36 m/s, 46° | - | - |
| 1777642522 | 16.67° C | 75% | 1022 hPa | 0 mm | 6.26 m/s, 80° | - | - |
| 1777642222 | 16.67° C | 76% | 1022 hPa | 0 mm | 6.71 m/s, 76° | - | - |
| 1777641923 | 16.67° C | 75% | 1022 hPa | 0 mm | 8.49 m/s, 80° | - | - |
| 1777641622 | 16.67° C | 76% | 1022.4 hPa | 0 mm | 5.81 m/s, 81° | - | - |
| 1777641322 | 16.67° C | 77% | 1022.4 hPa | 0 mm | 6.71 m/s, 91° | - | - |
| 1777641022 | 16.67° C | 77% | 1022.4 hPa | 0 mm | 6.26 m/s, 97° | - | - |
| 1777640722 | 16.67° C | 77% | 1022.4 hPa | 0 mm | 7.6 m/s, 100° | - | - |
| 1777640421 | 16.67° C | 78% | 1022.4 hPa | 0 mm | 9.83 m/s, 67° | - | - |
| 1777640122 | 16.67° C | 77% | 1022.4 hPa | 0 mm | 7.6 m/s, 76° | - | - |
| 1777639822 | 16.67° C | 77% | 1022.4 hPa | 0 mm | 8.05 m/s, 65° | - | - |
| 1777639521 | 16.67° C | 78% | 1022.4 hPa | 0 mm | 9.39 m/s, 92° | - | - |
| 1777639221 | 16.67° C | 79% | 1022.4 hPa | 0 mm | 10.73 m/s, 62° | - | - |
| 1777638921 | 16.67° C | 80% | 1022.7 hPa | 0 mm | 6.26 m/s, 17° | - | - |
| 1777638621 | 16.67° C | 80% | 1022.7 hPa | 0 mm | 7.6 m/s, 83° | - | - |
| 1777638321 | 16.67° C | 80% | 1022.7 hPa | 0 mm | 7.15 m/s, 129° | - | - |
| 1777638021 | 16.67° C | 78% | 1022.7 hPa | 0 mm | 8.49 m/s, 91° | - | - |
| 1777637721 | 16.67° C | 78% | 1022.7 hPa | 0 mm | 5.81 m/s, 126° | - | - |
* Rain latest hour (hover to see other rain measurements)
** Current wind speed in m/s (hover to see current wind gust speed)